World > North America > United States > Wisconsin

Richland Center, Wisconsin Regional Weather

Lat: 43.34N, Lon: 90.38W
Wx Zone: WIZ055
Warning NWS WEATHER ALERT - (More Info. Click Here) Warning
Feedback

Richland Center, WI Regional Weather

Expires:202007150200;;860594
ASUS43 KMKX 150122
RWRWI 

WISCONSIN REGIONAL WEATHER ROUNDUP
NATIONAL WEATHER SERVICE MILWAUKEE/SULLIVAN WI
800 PM CDT TUE JUL 14 2020

NOTE: "FAIR" INDICATES FEW OR NO CLOUDS BELOW 12,000 FEET WITH NO
SIGNIFICANT WEATHER AND/OR OBSTRUCTIONS TO VISIBILITY.


WIZ032>034-041-042-053>061-150200-
SOUTHWEST WISCONSIN
  
CITY           SKY/WX    TMP DP  RH WIND       PRES   REMARKS
LA CROSSE      CLOUDY    73  68  84 NW7       29.90S                  
SPARTA         LGT RAIN  68  66  96 CALM      29.92R                  
VIROQUA        CLOUDY    72  72 100 SW5       29.95R VSB 1/4          
BOSCOBEL       CLOUDY    82  68  62 CALM      29.87F HX  85           
PRAIRIE DU CHI CLOUDY    81  67  61 S8        29.88R HX  83           
PLATTEVILLE    CLOUDY    78  73  85 S9        29.93S HX  81           
$$


SKY/WX - Weather  TMP - Temperature  DP - Dew Point  RH - Relative Humidity
WIND - Wind Direction/Speed PRES - Barometric Pressure VSB - Visibility
WCI - Wind Chill Index E13G22 Wind - East Wind 13 mph/Gusts of 22 mph
Richland Center Weather Map
UTC Time: 7/15/2020, 01:47
Your Time: